OBJECT E, 44314

Orbit data source: Space-Track

You're viewing an Uncataloged Satellite

Recently launched and/or uncataloged satellites may have evolving metadata. Metadata may include but not limited to: Owner, Maufacturer, Bus, Motor, and Mission.

OBJECT E, 44314 is a satellite owned by CAST (CN) in LEO that was launched on Wed, 05 Jun 2019 UTC via a CHANG ZHENG 11 launch vehicle from the Yellow Sea Launch Area, China (YSLA). Unknown objects in Earth's orbit typically refer to objects detected orbiting the Earth but have not yet been identified or cataloged. These objects could be anything from previously untracked satellites, spent rocket stages, debris from satellite collisions, or even natural meteoroids temporarily captured by Earth's gravity.

Loading next visibility...
Identifier
44314, 2019-032E
Orbit
LEO
Last TLE update
8 hours ago
Origin
Manufacturer
CAST?
Mission
Operational Commercial Weather
Bus & Motor
BF, Unknown motor
Mass
~10 kg wet, ~10 kg dry
Launch date (UTC)
2019-06-05 (6 years ago)
Launch vehicle
CHANG ZHENG 11
Launch site
Yellow Sea Launch Area, China (YSLA)
Object type
Unknown
Shape & HBR
Box, 0.3 m
Radar Cross Section
0.105 m², Medium (>0.1 m² and < 1m²)

Expand to show TLE details & history

TLE from 8 hours ago
0 OBJECT E
1 44314U 19032E   25184.16617118  .00009506  00000-0  37900-3 0  9994
2 44314  44.9969  97.5274 0012789 118.0259 242.1918 15.25461215334612
Epoch: 2025-07-03T03:59Z
TLE epoch observation values (Epoch: 2025-07-03T03:59:17.189Z)
Latitude
-0.00006°
Longitude
116.26889°
Altitude
493.505 km
Speed
7.617 km/s
True Right ascension
06h 30m 06s
True Declination
0° 00' 00"
Sunlit
Object was in daylight at epoch
Visualization orbit readout
Latitude
0.31554°
Longitude
114.79974°
Altitude
493.639 km
Speed
7.617 km/s
Apparent Right ascension
08h 29m 45s
Apparent Declination
-23° 38' 42"
Sunlit
Object is in daylight
Visualization observer readout
Local Sidereal Time
23:37:27
Azimuth
82.018° E
Elevation
-47.492°
Doppler factor
1
Orbital elements
Apogee altitude
499.794 km
Perigee altitude
482.224 km
Semi-major axis
6,869.146 km
Eccentricity
0.00128
Inclination
44.9969°
RAAN
97.5274°
Arg. of periapsis
118.0259°
True anomaly
Unknown
Mean anomaly
242.1918°
Eccentric anomaly
Unknown
Mean motion
3.81232 °/min
Orbital period
94.43 mins
BSTAR
0.000379
Loading maneuver chart data...
Loading SW <> Apogee altitude chart data...
Loading historical data...
Loading historical data...
Loading historical data...
Loading historical data...
Loading historical data...
Loading historical data...
Loading historical data...

OBJECT E Visibility forecast

Observer location: undefined°, undefined°

Span
Click to sort rows by Start time (UTC) header in descending order
Start Az.
Max El. time (UTC)
Max El. Az.
Max El.
End time (UTC)
End Az.
6 mins2025-07-03 21:28:53.664Z220.984° SW2025-07-03 21:31:53.664Z141.49° SSE36.918°2025-07-03 21:34:53.664Z76.247° E
5 mins2025-07-03 23:08:53.664Z284.07° WNW2025-07-03 23:10:53.664Z356.299° N36.321°2025-07-03 23:13:53.664Z60.068° ENE
5 mins2025-07-04 00:47:53.664Z306.182° NW2025-07-04 00:49:53.664Z356.766° N31.268°2025-07-04 00:52:53.664Z70.133° E
6 mins2025-07-04 02:26:53.664Z295.267° NW2025-07-04 02:28:53.664Z307.604° NW43.094°2025-07-04 02:32:53.664Z112.213° ESE
|